DW7214 Weather Reports


time (UTC)temp
F
wind
direction
speed
knots
gust
knots
rain 1hr
in
rain 24hr
in
rain mn
in
humidity
%
barometer
mb
20260509004504 69 229 1.7 6.1 0.00 0.00 0.00 52 1021.8
20260509003004 69 287 3.5 7.0 0.00 0.00 0.00 51 1021.8
20260509001510 68 338 0.0 4.3 0.00 0.00 0.00 53 1021.8
20260509000016 68 341 1.7 7.8 0.00 0.00 0.00 55 1022.0
20260508234526 67 15 2.6 3.5 0.00 0.00 0.00 54 1022.0
20260508233006 67 342 1.7 3.5 0.00 0.00 0.00 55 1022.1
20260508231509 68 315 0.0 3.5 0.00 0.00 0.00 53 1022.1
20260508230012 67 53 2.6 5.2 0.00 0.00 0.00 54 1022.1
20260508224522 67 139 1.7 4.3 0.00 0.00 0.00 53 1022.0
20260508223004 67 25 0.9 4.3 0.00 0.00 0.00 54 1022.1
20260508221511 66 51 2.6 8.7 0.00 0.00 0.00 58 1022.2
20260508220013 65 112 0.9 6.1 0.00 0.00 0.00 55 1022.3
20260508214523 65 105 2.6 11.3 0.00 0.00 0.00 57 1022.3
20260508213020 66 136 0.9 8.7 0.00 0.00 0.00 55 1022.4
20260508211505 65 53 2.6 9.6 0.00 0.00 0.00 55 1022.4
20260508210011 65 167 1.7 7.8 0.00 0.00 0.00 54 1022.3
20260508204517 64 103 1.7 7.8 0.00 0.00 0.00 58 1022.4
20260508203030 64 121 3.5 9.6 0.00 0.00 0.00 56 1022.4
20260508201522 64 96 3.5 8.7 0.00 0.00 0.00 54 1022.4
20260508200009 64 126 2.6 7.0 0.00 0.00 0.00 56 1022.5
20260508194517 62 90 3.5 8.7 0.00 0.00 0.00 55 1022.5
20260508193019 62 202 2.6 7.0 0.00 0.00 0.00 58 1022.6
20260508191524 62 57 2.6 8.7 0.00 0.00 0.00 56 1022.7
20260508190014 61 201 4.3 8.7 0.00 0.00 0.00 56 1022.8
20260508184522 61 222 2.6 10.4 0.00 0.00 0.00 58 1022.7
20260508183027 60 196 2.6 9.6 0.00 0.00 0.00 60 1022.7
20260508181521 60 230 5.2 11.3 0.00 0.00 0.00 58 1022.6
20260508180026 59 148 3.5 15.6 0.00 0.00 0.00 60 1022.5
20260508174510 59 149 3.5 11.3 0.00 0.00 0.00 61 1022.4
20260508173015 58 112 3.5 10.4 0.00 0.00 0.00 62 1022.4
20260508171518 58 126 3.5 7.8 0.00 0.00 0.00 68 1022.3
20260508170033 57 202 0.9 7.0 0.00 0.00 0.00 70 1022.1
20260508164534 56 105 2.6 7.0 0.00 0.00 0.00 71 1022.2
20260508163015 56 140 0.9 7.8 0.00 0.00 0.00 72 1022.1
20260508161516 55 119 3.5 7.0 0.00 0.00 0.00 75 1022.1
20260508160022 53 135 0.9 6.1 0.00 0.00 0.00 78 1021.8
20260508154504 52 87 1.7 4.3 0.00 0.00 0.00 80 1021.8
20260508153026 51 171 0.9 5.2 0.00 0.00 0.00 83 1021.8
20260508151516 49 344 0.0 1.7 0.00 0.00 0.00 86 1021.6
20260508150021 47 245 0.9 1.7 0.00 0.00 0.00 88 1021.7
20260508144528 47 243 0.0 1.7 0.00 0.00 0.00 88 1021.5
20260508143010 46 243 0.0 1.7 0.00 0.00 0.00 88 1021.4
20260508141513 46 287 0.0 1.7 0.00 0.00 0.00 88 1021.4
20260508140022 45 287 0.0 0.9 0.00 0.00 0.00 88 1021.4
20260508134523 44 241 0.0 2.6 0.00 0.00 0.00 91 1021.2
20260508133010 43 248 0.0 1.7 0.00 0.00 0.00 91 1020.9
20260508131513 43 248 0.0 1.7 0.00 0.00 0.00 90 1020.7
20260508130031 43 248 0.0 0.9 0.00 0.00 0.00 90 1020.5
20260508124521 44 248 0.0 1.7 0.00 0.00 0.00 89 1020.3
20260508123026 44 281 0.0 1.7 0.00 0.00 0.00 89 1020.1
20260508121510 44 204 0.0 1.7 0.00 0.00 0.00 90 1019.9
20260508120012 44 155 0.0 1.7 0.00 0.00 0.00 89 1019.5
20260508114520 44 171 0.0 1.7 0.00 0.00 0.00 87 1019.6
20260508113025 44 282 0.0 1.7 0.00 0.00 0.00 87 1019.4
20260508111511 45 227 0.0 1.7 0.00 0.00 0.00 88 1019.3
20260508110012 45 250 0.0 1.7 0.00 0.00 0.00 87 1018.9
20260508104510 45 233 0.0 1.7 0.00 0.00 0.00 87 1018.7
20260508103012 45 238 0.0 1.7 0.00 0.00 0.00 86 1018.6
20260508101514 45 240 0.0 1.7 0.00 0.00 0.00 85 1018.5
20260508100014 46 174 0.0 1.7 0.00 0.00 0.00 88 1018.5
20260508094511 46 163 0.0 1.7 0.00 0.00 0.00 88 1018.4
20260508093016 46 196 0.9 2.6 0.00 0.00 0.00 88 1018.4
20260508091522 46 122 0.0 1.7 0.00 0.00 0.00 88 1018.2
20260508090016 46 26 0.0 2.6 0.00 0.00 0.00 88 1018.1
20260508084516 46 134 0.9 3.5 0.00 0.00 0.00 88 1018.1
20260508083014 47 115 0.9 2.6 0.00 0.00 0.00 88 1018.0
20260508081517 47 132 0.0 1.7 0.00 0.00 0.00 88 1017.9
20260508080015 47 71 0.0 1.7 0.00 0.00 0.00 87 1017.8
20260508074520 48 78 0.0 1.7 0.00 0.00 0.00 85 1017.8
20260508073016 48 103 0.9 1.7 0.00 0.00 0.00 85 1017.7
20260508071518 49 48 0.0 2.6 0.00 0.00 0.00 84 1017.6
20260508070016 50 126 0.0 1.7 0.00 0.00 0.00 83 1017.6
20260508064525 50 77 0.0 1.7 0.00 0.00 0.00 83 1017.6
20260508063018 51 95 0.0 2.6 0.00 0.00 0.00 82 1017.8
20260508061512 51 111 0.0 1.7 0.00 0.00 0.00 82 1017.7
20260508060012 52 52 0.0 1.7 0.00 0.00 0.00 81 1017.7
20260508054508 52 20 0.0 1.7 0.00 0.00 0.00 79 1017.7
20260508053014 53 360 0.9 1.7 0.00 0.00 0.00 77 1017.7
20260508051511 55 134 0.0 1.7 0.00 0.00 0.00 74 1017.7
20260508050015 56 111 0.9 2.6 0.00 0.00 0.00 72 1017.6
20260508044506 57 49 0.0 1.7 0.00 0.00 0.00 71 1017.5
20260508043012 57 107 0.0 1.7 0.00 0.00 0.00 71 1017.5
20260508041513 58 136 0.9 2.6 0.00 0.00 0.00 68 1017.4
20260508040013 59 109 0.0 1.7 0.00 0.00 0.00 68 1017.2
20260508034519 61 126 0.0 1.7 0.00 0.00 0.00 68 1016.8
20260508033011 62 227 0.0 1.7 0.00 0.00 0.00 68 1016.7
20260508031512 64 227 0.0 1.7 0.00 0.00 0.00 68 1016.6
20260508030012 65 177 0.0 2.6 0.00 0.00 0.00 61 1016.5
20260508024513 66 165 0.9 1.7 0.00 0.00 0.00 63 1016.5
20260508023014 67 110 0.0 2.6 0.00 0.00 0.00 61 1016.6
20260508021510 68 81 0.0 2.6 0.00 0.00 0.00 57 1016.7
20260508020019 69 121 2.6 6.1 0.00 0.00 0.00 56 1016.7
20260508014518 71 181 0.9 3.5 0.00 0.00 0.00 55 1016.6
20260508013014 71 40 0.9 3.5 0.00 0.00 0.00 53 1016.7
20260508011510 71 44 0.9 3.5 0.00 0.00 0.00 53 1016.9
20260508010013 72 155 0.9 3.5 0.00 0.00 0.00 51 1017.0